STARLINK-32937, 63148

Orbit data source: Space-Track

STARLINK-32937, 63148 is a payload satellite owned by SpaceX/Seattle (US) in LEO that was launched on Mon, 03 Mar 2025 UTC via an FALCON 9 launch vehicle from the Air Force Eastern Test Range (AFETR). Payload-class satellites include a variety of spacecraft equipped with specific instruments for various scientific and technological missions. These include communications satellites like Starlink; space stations such as the ISS; scientific satellites like the Hubble; Earth observation satellites from companies like Planet Labs, Umbra, and HawkEye 360; GPS; miniature CubeSats for education and research; and military/defense satellites.

Loading next visibility...
Identifier
63148, 2025-043S
Orbit
LEO
Last TLE update
11 hours ago
Origin
Manufacturer
SpaceX/Seattle
Mission
Operational Commercial Communications
Bus & Motor
STARLINK V2M, Unknown motor
Mass
730 kg wet, ~700 kg dry
Launch date (UTC)
2025-03-03 (2 months ago)
Launch vehicle
FALCON 9
Launch site
Air Force Eastern Test Range (AFETR)
Object type
Payload
Rocket body
Debris
Shape & HBR
Box + 2 Pan, 29 m
Radar Cross Section
33.884 m², Large (>1 m²)

Expand to show TLE details & history

TLE from 11 hours ago
0 STARLINK-32937
1 63148U 25043S   25128.79783229  .00001068  00000-0  32833-4 0  9999
2 63148  43.0019 302.3846 0001229 267.8533  92.2183 15.40702192 10686
Epoch: 2025-05-08T19:08Z
Definitive object data (Epoch: 2025-05-08T19:08:52.709Z)
Latitude
-0.00002°
Longitude
148.30179°
Altitude
443.843 km
Speed
7.648 km/s
True Right ascension
20h 09m 32s
True Declination
0° 00' 00"
Sunlit
Object was in daylight at TLE epoch
Visualization TLE readout
Latitude
-12.05168°
Longitude
132.54502°
Altitude
445.879 km
Speed
7.646 km/s
Apparent Right ascension
21h 51m 16s
Apparent Declination
-37° 22' 06"
Sunlit
Object is in full shadow
Visualization observer readout
Local Sidereal Time
14:06:30
Azimuth
108.631° ESE
Elevation
-41.185°
Doppler factor
1
Orbital elements
Apogee altitude
446.83 km
Perigee altitude
445.153 km
Semi-major axis
6,824.129 km
Eccentricity
0.0001229
Inclination
43.0019°
RAAN
302.3846°
Arg. of periapsis
267.8533°
True anomaly
92.23237°
Mean anomaly
92.2183°
Eccentric anomaly
92.22534°
Mean motion
3.8501 °/min
BSTAR
0.000032833
Orbital period
93.5 mins
Loading maneuver chart data...
Loading SW <> Apogee altitude chart data...
Loading historical data...
Loading historical data...
Loading historical data...
Loading historical data...
Loading historical data...
Loading historical data...
Loading historical data...

STARLINK-32937 Visibility forecast

Observer location: undefined°, undefined°

Span
Click to sort rows by Start time (UTC) header in descending order
Start Az.
Max El. time (UTC)
Max El. Az.
Max El.
End time (UTC)
End Az.
5 mins2025-05-09 15:37:45.155Z242.929° WSW2025-05-09 15:39:45.155Z201.796° SSW43.716°2025-05-09 15:42:45.155Z74.174° E
4 mins2025-05-09 17:16:45.155Z296.618° NW2025-05-09 17:17:45.155Z329.931° NNW36.096°2025-05-09 17:20:45.155Z69.301° E
5 mins2025-05-09 18:54:45.155Z295.718° NW2025-05-09 18:56:45.155Z52.323° ENE42.362°2025-05-09 18:59:45.155Z98.727° ESE
4 mins2025-05-09 20:32:45.155Z257.191° W2025-05-09 20:34:45.155Z197.35° SSW26.858°2025-05-09 20:36:45.155Z153.738° SSE
|